Location: Milevsko
(49.4500°N, 14.3670°E)
Time: 00:37:27
(UTC+01:00)

ISS - Pass Details

Date: 12 July 2018
Orbit: 401 x 408 km, 51.6° (Epoch: 20 November)

Event Time Altitude Azimuth Distance (km) Brightness Sun altitude
Exits shadow 01:16:49 12° 101° (E) 1,380 -1.2 -18.5°
Drops below altitude 10° 01:17:13 10° 95° (E) 1,491 -1.0 -18.5°
Sets 01:19:46 0° 76° (ENE) 2,361 0.3 -18.5°
